星链-5374 (STARLINK-5374 )

导读 | 豆包AI

STARLINK-5374是美国太空探索技术公司(SpaceX)星链(Starlink)星座的一员,于2023年3月29日发射入轨。星链是全球最大低轨卫星互联网星座项目,该卫星主要用于补充星链网络容量,为全球偏远地区、移动场景等提供高速低时延的宽带互联网接入,同时也可支撑军事通信等拓展应用,进一步完善了星链星座的全球覆盖与服务能力。

基本信息
目录编号:
56144
目录名称:
STARLINK-5374
国际标识:
2023-046BE
轨道中心:
EARTH
卫星名称:
星链-5374
卫星全名:
星链-5374 (STARLINK-5374 )
卫星状态:
在轨 (已飞行1082 天)
发射日期:
2023-03-29 UTC
国别 :
美国 (US)
星等 :
--
轨道信息
数据来源 国际轨道数据
星历时间: 2026-03-15T14:00:01+0800
12小时前
查看轨道信息
半长轴: 6891.913km
偏心率: 0.0001
轨道倾角: 43.000°
近地点辐角 274.134°
升交点赤经 115.004°
平近点角 212.930°
近地点: 513.086km
远地点: 514.466km
周期: 94.901分钟
每日圈数: 15.173758
详细信息
固有亮度:
5
最大亮度:
2.5
卫星平台:
Starlink v1.5
覆盖范围:
全球
运营商:
太空探索技术公司
运营商所在国:
美国
制造商(研发单位):
太空探索技术公司
制造商所在国:
美国
使用方式:
暂无
卫星简介
星链(Starlink)计划是由太空探索技术公司(SpaceX)提出的一个巨型低轨卫星互联网星座项目,计划在2019年至2024年间在太空搭建由约1.2万颗卫星组成的“星链”网络,其中1584颗将部署在地球上空550千米处的近地轨道,并从2020年开始工作。该卫星仍在工作。
2D轨道图
3D轨道图
轨道高度分析图
轨道倾角分析图
轨道综合分析图
查看轨道综合分析图